Chico, CA

6:37 AM PDT on October 01, 2016 (GMT -0700)
Chico Municipal

Weather History for KCIC - October, 2013

Change the Weather History Date:

Wednesday, October 30, 2013

  Actual Average (KOVE) Record (KOVE)
Temperature  
Mean Temperature 52 °F -  
Max Temperature 66 °F 70 °F 86 °F (1955)
Min Temperature 39 °F 46 °F 36 °F (1989)
Degree Days  
Heating Degree Days 12    
Growing Degree Days 2 (Base 50)    
Moisture  
Dew Point 39 °F    
Average Humidity 68    
Maximum Humidity 93    
Minimum Humidity 35    
Precipitation  
Precipitation 0.00 in - - ()
Sea Level Pressure  
Sea Level Pressure 30.10 in    
Wind  
Wind Speed 2 mph (ENE)    
Max Wind Speed 9 mph    
Max Gust Speed -    
Visibility 10 miles    
Events      
Averages and records for this station are not official NWS values.
T = Trace of Precipitation, MM = Missing Value Source: NWS Daily Summary

Daily Weather History Graph

Daily Weather History Graph

Search for Another Location

Airport or City:

Trip Planner

Search our weather history database for the weather conditions in past years. The results will help you decide how hot, cold, wet, or windy it might be!

Date:

Astronomy

Oct. 30, 2013 Rise Set
Actual Time 7:34 AM PDT 6:07 PM PDT
Civil Twilight 7:06 AM PDT 6:35 PM PDT
Nautical Twilight 6:34 AM PDT 7:06 PM PDT
Astronomical Twilight 6:03 AM PDT 7:38 PM PDT
Moon 3:28 AM PDT (10/30) 3:55 PM PDT (10/30)
Length of Visible Light 11h 28m
Length of Day
10h 33m
Waning Crescent, 16% of the Moon is Illuminated
Oct 30
Waning Crescent
Nov 3
New
Nov 9
First Quarter
Nov 17
Full
Nov 25
Last Quarter

Hourly Weather History & Observations

Time (PDT) Temp. Dew Point Humidity Pressure Visibility Wind Dir Wind Speed Gust Speed Precip Events Conditions
12:15 AM 50.0 °F 41.0 °F 71% 30.06 in 10.0 mi ENE 6.9 mph - N/A   Partly Cloudy
12:35 AM 48.2 °F 41.0 °F 76% 30.06 in 10.0 mi Calm Calm - N/A   Clear
12:55 AM 50.0 °F 41.0 °F 71% 30.05 in 10.0 mi NE 6.9 mph - N/A   Clear
1:15 AM 50.0 °F 41.0 °F 71% 30.05 in 10.0 mi NE 5.8 mph - N/A   Clear
1:35 AM 44.6 °F 39.2 °F 81% 30.06 in 10.0 mi Calm Calm - N/A   Clear
1:55 AM 44.6 °F 39.2 °F 81% 30.06 in 10.0 mi Calm Calm - N/A   Clear
2:15 AM 44.6 °F 39.2 °F 81% 30.07 in 10.0 mi Calm Calm - N/A   Clear
2:35 AM 44.6 °F 41.0 °F 87% 30.07 in 10.0 mi Calm Calm - N/A   Clear
2:55 AM 44.6 °F 41.0 °F 87% 30.07 in 10.0 mi Calm Calm - N/A   Scattered Clouds
3:15 AM 44.6 °F 39.2 °F 81% 30.07 in 10.0 mi Calm Calm - N/A   Mostly Cloudy
3:35 AM 42.8 °F 39.2 °F 87% 30.07 in 10.0 mi Calm Calm - N/A   Partly Cloudy
3:55 AM 44.6 °F 39.2 °F 81% 30.06 in 10.0 mi Calm Calm - N/A   Clear
4:15 AM 44.6 °F 39.2 °F 81% 30.07 in 10.0 mi Calm Calm - N/A   Clear
4:35 AM 39.2 °F 37.4 °F 93% 30.08 in 10.0 mi Calm Calm - N/A   Partly Cloudy
4:55 AM 42.8 °F 39.2 °F 87% 30.08 in 10.0 mi Calm Calm - N/A   Mostly Cloudy
5:15 AM 44.6 °F 39.2 °F 81% 30.08 in 10.0 mi Calm Calm - N/A   Scattered Clouds
5:35 AM 42.8 °F 39.2 °F 87% 30.08 in 10.0 mi Calm Calm - N/A   Partly Cloudy
5:55 AM 42.8 °F 39.2 °F 87% 30.09 in 10.0 mi Calm Calm - N/A   Clear
6:15 AM 42.8 °F 39.2 °F 87% 30.09 in 10.0 mi Calm Calm - N/A   Clear
6:35 AM 41.0 °F 39.2 °F 93% 30.09 in 10.0 mi Calm Calm - N/A   Partly Cloudy
6:50 AM 41.0 °F 39.2 °F 93% 30.10 in 10.0 mi Calm Calm - N/A   Clear
6:55 AM 41.0 °F 39.2 °F 93% 30.10 in 10.0 mi Calm Calm - N/A   Partly Cloudy
7:15 AM 42.8 °F 39.2 °F 87% 30.10 in 10.0 mi Calm Calm - N/A   Scattered Clouds
7:35 AM 39.2 °F 35.6 °F 87% 30.11 in 10.0 mi Calm Calm - N/A   Clear
7:50 AM 39.2 °F 37.4 °F 93% 30.13 in 40.0 mi Calm Calm - N/A   Partly Cloudy
8:50 AM 46.4 °F 39.2 °F 76% 30.14 in 40.0 mi Calm Calm - N/A   Scattered Clouds
9:47 AM 50.0 °F 39.2 °F 66% 30.15 in 40.0 mi Calm Calm - N/A   Scattered Clouds
10:58 AM 55.4 °F 41.0 °F 58% 30.16 in 40.0 mi Calm Calm - N/A   Mostly Cloudy
11:59 AM 59.0 °F 39.2 °F 48% 30.16 in 40.0 mi Calm Calm - N/A   Mostly Cloudy
12:47 PM 60.8 °F 41.0 °F 48% 30.15 in 40.0 mi SW 4.6 mph - N/A   Mostly Cloudy
1:50 PM 64.4 °F 39.2 °F 40% 30.11 in 40.0 mi South 5.8 mph - N/A   Mostly Cloudy
2:55 PM 66.2 °F 37.4 °F 35% 30.10 in 40.0 mi WSW 6.9 mph - N/A   Scattered Clouds
3:50 PM 66.2 °F 37.4 °F 35% 30.09 in 40.0 mi WSW 5.8 mph - N/A   Scattered Clouds
4:50 PM 66.2 °F 37.4 °F 35% 30.09 in 40.0 mi WSW 5.8 mph - N/A   Partly Cloudy
5:50 PM 64.4 °F 39.2 °F 40% 30.09 in 40.0 mi WSW 9.2 mph - N/A   Clear
6:47 PM 60.8 °F 39.2 °F 45% 30.10 in 40.0 mi Calm Calm - N/A   Clear
7:55 PM 57.2 °F 37.4 °F 48% 30.12 in 10.0 mi NE 6.9 mph - N/A   Clear
8:15 PM 55.4 °F 37.4 °F 51% 30.12 in 10.0 mi East 3.5 mph - N/A   Clear
8:35 PM 55.4 °F 37.4 °F 51% 30.12 in 10.0 mi ENE 5.8 mph - N/A   Clear
8:55 PM 55.4 °F 37.4 °F 51% 30.12 in 10.0 mi ENE 5.8 mph - N/A   Clear
9:15 PM 55.4 °F 37.4 °F 51% 30.12 in 10.0 mi ENE 6.9 mph - N/A   Clear
9:35 PM 53.6 °F 37.4 °F 54% 30.12 in 10.0 mi NE 4.6 mph - N/A   Clear
9:55 PM 55.4 °F 37.4 °F 51% 30.12 in 10.0 mi NE 8.1 mph - N/A   Clear
10:15 PM 53.6 °F 37.4 °F 54% 30.13 in 10.0 mi NE 6.9 mph - N/A   Clear
10:35 PM 53.6 °F 37.4 °F 54% 30.13 in 10.0 mi Calm Calm - N/A   Clear
10:55 PM 51.8 °F 37.4 °F 58% 30.13 in 10.0 mi Calm Calm - N/A   Clear
11:15 PM 51.8 °F 37.4 °F 58% 30.13 in 10.0 mi Calm Calm - N/A   Clear
11:35 PM 50.0 °F 37.4 °F 62% 30.13 in 10.0 mi Calm Calm - N/A   Clear
11:55 PM 50.0 °F 37.4 °F 62% 30.13 in 10.0 mi Calm Calm - N/A   Clear